When you browse on this site, cookies collect data to enhance your experience and personalize the content and advertising you see.
Visit our Privacy Policy to learn more. By continuing to use the site, you agree to this use of cookies and data.
  • In Hungary
  • List of Countries
  • For 7 days
  • Water Temperature
  • Satellite Maps
  • Weather Map
  • News
  • Weather Widgets
  • user-avatar
    Login

    Hourly Weather Tishino

    Today, 22 May, Wednesday

    Time Temperature Precipitation Wind Pressure Humidity
    00:00 +18°C° 0.6 mm 1 mps 753 mmHg 91%
    01:00 +16°C° 0.6 mm 1 mps 753 mmHg 92%
    02:00 +16°C° 0 mm 1 mps 753 mmHg 93%
    03:00 +16°C° 1.6 mm 1 mps 753 mmHg 93%
    04:00 +16°C° 1.6 mm 1 mps 752 mmHg 94%
    05:00 +16°C° 1.6 mm 1 mps 752 mmHg 94%
    06:00 +18°C° 0.4 mm 1 mps 752 mmHg 91%
    07:00 +20°C° 0.4 mm 1 mps 752 mmHg 87%
    08:00 +21°C° 0.4 mm 1 mps 752 mmHg 83%
    09:00 +22°C° 2.5 mm 1 mps 752 mmHg 81%
    10:00 +23°C° 2.5 mm 2 mps 751 mmHg 78%
    11:00 +24°C° 2.5 mm 2 mps 751 mmHg 76%
    12:00 +24°C° 0.3 mm 2 mps 751 mmHg 71%
    13:00 +25°C° 0.3 mm 2 mps 751 mmHg 66%
    14:00 +25°C° 0.3 mm 2 mps 751 mmHg 62%
    15:00 +25°C° 0 mm 2 mps 751 mmHg 61%
    16:00 +25°C° 0 mm 1 mps 750 mmHg 60%
    17:00 +26°C° 0 mm 1 mps 750 mmHg 59%
    18:00 +24°C° 0.2 mm 1 mps 750 mmHg 65%
    19:00 +20°C° 0.2 mm 0 mps 750 mmHg 71%
    20:00 +19°C° 0.2 mm 0 mps 750 mmHg 77%
    21:00 +18°C° 0 mm 0 mps 750 mmHg 80%
    22:00 +17°C° 0 mm 0 mps 750 mmHg 83%
    23:00 +16°C° 0 mm 0 mps 750 mmHg 87%

    Tomorrow, 23 May, Thursday

    Time Temperature Precipitation Wind Pressure Humidity
    00:00 +16°C° 0 mm 1 mps 750 mmHg 88%
    01:00 +16°C° 0 mm 1 mps 750 mmHg 90%
    02:00 +16°C° 0 mm 1 mps 750 mmHg 92%
    03:00 +15°C° 0 mm 1 mps 750 mmHg 92%
    04:00 +15°C° 0 mm 2 mps 750 mmHg 93%
    05:00 +15°C° 0 mm 2 mps 749 mmHg 93%
    06:00 +17°C° 0 mm 2 mps 749 mmHg 87%
    07:00 +18°C° 0 mm 2 mps 749 mmHg 81%
    08:00 +20°C° 0 mm 2 mps 749 mmHg 76%
    09:00 +21°C° 0 mm 2 mps 749 mmHg 69%
    10:00 +23°C° 0 mm 2 mps 749 mmHg 62%
    11:00 +25°C° 0 mm 3 mps 749 mmHg 55%
    12:00 +25°C° 0 mm 3 mps 749 mmHg 54%
    13:00 +26°C° 0 mm 3 mps 749 mmHg 53%
    14:00 +26°C° 0 mm 3 mps 749 mmHg 52%
    15:00 +26°C° 0.1 mm 3 mps 749 mmHg 55%
    16:00 +25°C° 0.1 mm 3 mps 749 mmHg 58%
    17:00 +25°C° 0.1 mm 3 mps 749 mmHg 61%
    18:00 +22°C° 0.1 mm 3 mps 750 mmHg 70%
    19:00 +20°C° 0.1 mm 2 mps 750 mmHg 79%
    20:00 +18°C° 0.1 mm 2 mps 750 mmHg 87%
    21:00 +17°C° 0 mm 2 mps 751 mmHg 89%
    22:00 +16°C° 0 mm 2 mps 751 mmHg 91%
    23:00 +15°C° 0 mm 2 mps 751 mmHg 93%

    Day after tomorrow, 24 May, Friday

    Time Temperature Precipitation Wind Pressure Humidity
    00:00 +14°C° 0 mm 2 mps 752 mmHg 94%
    01:00 +13°C° 0 mm 2 mps 752 mmHg 94%
    02:00 +13°C° 0 mm 2 mps 752 mmHg 95%
    03:00 +12°C° 0 mm 2 mps 752 mmHg 95%
    04:00 +12°C° 0 mm 2 mps 752 mmHg 94%
    05:00 +12°C° 0 mm 2 mps 752 mmHg 94%
    06:00 +14°C° 0 mm 2 mps 752 mmHg 90%
    07:00 +15°C° 0 mm 2 mps 752 mmHg 85%
    08:00 +16°C° 0 mm 2 mps 752 mmHg 81%
    09:00 +18°C° 0 mm 3 mps 752 mmHg 76%
    10:00 +20°C° 0 mm 3 mps 752 mmHg 70%
    11:00 +21°C° 0 mm 3 mps 752 mmHg 64%
    12:00 +22°C° 0.2 mm 3 mps 752 mmHg 64%
    13:00 +22°C° 0.2 mm 3 mps 751 mmHg 63%
    14:00 +24°C° 0.2 mm 3 mps 751 mmHg 63%
    15:00 +23°C° 1.6 mm 2 mps 751 mmHg 69%
    16:00 +21°C° 1.6 mm 2 mps 750 mmHg 75%
    17:00 +21°C° 1.6 mm 2 mps 750 mmHg 81%
    18:00 +19°C° 1.6 mm 2 mps 750 mmHg 84%
    19:00 +18°C° 1.6 mm 2 mps 750 mmHg 87%
    20:00 +17°C° 1.6 mm 2 mps 750 mmHg 90%
    21:00 +16°C° 0.1 mm 2 mps 750 mmHg 92%
    22:00 +15°C° 0.1 mm 2 mps 750 mmHg 93%
    23:00 +14°C° 0.1 mm 2 mps 750 mmHg 95%

    25 May, Saturday

    Time Temperature Precipitation Wind Pressure Humidity
    00:00 +14°C° 0 mm 2 mps 750 mmHg 95%
    01:00 +13°C° 0 mm 2 mps 750 mmHg 95%
    02:00 +12°C° 0 mm 2 mps 750 mmHg 95%
    03:00 +12°C° 0 mm 2 mps 750 mmHg 94%
    04:00 +10°C° 0 mm 2 mps 750 mmHg 94%
    05:00 +11°C° 0 mm 1 mps 750 mmHg 94%
    06:00 +12°C° 0 mm 1 mps 750 mmHg 89%
    07:00 +14°C° 0 mm 1 mps 750 mmHg 84%
    08:00 +15°C° 0 mm 1 mps 750 mmHg 78%
    09:00 +16°C° 0 mm 2 mps 750 mmHg 71%
    10:00 +18°C° 0 mm 2 mps 749 mmHg 63%
    11:00 +19°C° 0 mm 2 mps 749 mmHg 55%
    12:00 +20°C° 0 mm 3 mps 749 mmHg 53%
    13:00 +20°C° 0 mm 3 mps 748 mmHg 50%
    14:00 +21°C° 0 mm 4 mps 748 mmHg 48%
    15:00 +20°C° 0.2 mm 4 mps 747 mmHg 54%
    16:00 +19°C° 0.2 mm 4 mps 747 mmHg 61%
    17:00 +17°C° 0.2 mm 5 mps 747 mmHg 67%
    18:00 +17°C° 0.3 mm 4 mps 747 mmHg 74%
    19:00 +14°C° 0.3 mm 4 mps 747 mmHg 81%
    20:00 +12°C° 0.3 mm 3 mps 746 mmHg 88%
    21:00 +11°C° 0 mm 3 mps 747 mmHg 90%
    22:00 +10°C° 0 mm 2 mps 747 mmHg 92%
    23:00 +8°C° 0 mm 2 mps 747 mmHg 94%

    26 May, Sunday

    Time Temperature Precipitation Wind Pressure Humidity
    00:00 +8°C° 0 mm 2 mps 747 mmHg 95%
    01:00 +8°C° 0 mm 2 mps 747 mmHg 95%
    02:00 +7°C° 0 mm 3 mps 747 mmHg 96%
    03:00 +7°C° 0 mm 3 mps 747 mmHg 95%
    04:00 +8°C° 0 mm 3 mps 747 mmHg 94%
    05:00 +8°C° 0 mm 3 mps 746 mmHg 94%
    06:00 +9°C° 0 mm 3 mps 746 mmHg 89%
    07:00 +10°C° 0 mm 3 mps 746 mmHg 84%
    08:00 +11°C° 0 mm 3 mps 746 mmHg 79%
    09:00 +11°C° 0 mm 3 mps 746 mmHg 77%
    10:00 +12°C° 0 mm 3 mps 746 mmHg 74%
    11:00 +12°C° 0 mm 4 mps 746 mmHg 72%
    12:00 +13°C° 0.2 mm 4 mps 746 mmHg 74%
    13:00 +13°C° 0.2 mm 5 mps 745 mmHg 75%
    14:00 +14°C° 0.2 mm 5 mps 745 mmHg 77%
    15:00 +13°C° 0.6 mm 5 mps 745 mmHg 80%
    16:00 +13°C° 0.6 mm 4 mps 744 mmHg 83%
    17:00 +12°C° 0.6 mm 4 mps 744 mmHg 87%
    18:00 +11°C° 0.9 mm 4 mps 744 mmHg 89%
    19:00 +10°C° 0.9 mm 4 mps 744 mmHg 91%
    20:00 +8°C° 0.9 mm 4 mps 744 mmHg 93%
    21:00 +7°C° 0.5 mm 4 mps 744 mmHg 93%
    22:00 +8°C° 0.5 mm 3 mps 744 mmHg 93%
    23:00 +7°C° 0.5 mm 3 mps 744 mmHg 93%

    27 May, Monday

    Time Temperature Precipitation Wind Pressure Humidity
    00:00 +7°C° 0.1 mm 3 mps 744 mmHg 93%
    01:00 +7°C° 0.1 mm 3 mps 744 mmHg 93%
    02:00 +5°C° 0.1 mm 3 mps 744 mmHg 94%
    03:00 +7°C° 0.2 mm 3 mps 744 mmHg 94%
    04:00 +7°C° 0.2 mm 3 mps 744 mmHg 94%
    05:00 +7°C° 0.2 mm 3 mps 745 mmHg 95%
    06:00 +8°C° 0 mm 3 mps 745 mmHg 91%
    07:00 +8°C° 0 mm 4 mps 746 mmHg 87%
    08:00 +10°C° 0 mm 4 mps 746 mmHg 84%
    09:00 +11°C° 0 mm 4 mps 747 mmHg 78%
    10:00 +12°C° 0 mm 3 mps 747 mmHg 72%
    11:00 +14°C° 0 mm 3 mps 748 mmHg 66%
    12:00 +14°C° 0 mm 3 mps 748 mmHg 64%
    13:00 +16°C° 0 mm 3 mps 748 mmHg 61%
    14:00 +17°C° 0 mm 3 mps 749 mmHg 59%
    15:00 +17°C° 0 mm 3 mps 749 mmHg 59%
    16:00 +17°C° 0 mm 3 mps 749 mmHg 59%
    17:00 +17°C° 0 mm 3 mps 749 mmHg 59%
    18:00 +16°C° 0 mm 3 mps 749 mmHg 66%
    19:00 +14°C° 0 mm 3 mps 749 mmHg 73%
    20:00 +12°C° 0 mm 3 mps 749 mmHg 80%
    21:00 +12°C° 0 mm 3 mps 749 mmHg 83%
    22:00 +11°C° 0 mm 3 mps 749 mmHg 86%
    23:00 +10°C° 0 mm 3 mps 749 mmHg 89%
    Show more